Retour au catalogue

FALCON 9 DEB

ActifVLEO
NORAD 48607·DEBRIS·🇺🇸 United States

Lancé May 15, 2021 depuis Cape Canaveral Space Force Station

Loading…

Prochains Passages (prochaines 24 heures)

TLE

FraisSource: Space-Track

Époque: Sep 14, 2026, 22:03 UTC

1 48607U 21041BG  26257.91895520  .00000650  00000-0  62994-4 0  9999
2 48607  53.0349  71.3192 0012257  22.9100 337.2433 15.06252375292672

Suivez FALCON 9 DEB en temps réel avec AllMySat

Download on the App Store